Weather History for KNYC - December, 2013

Change the Weather History Date:

Saturday, December 7, 2013

  Actual Average Record
Temperature  
Mean Temperature 37 °F 40 °F  
Max Temperature 41 °F 46 °F 75 °F (1998)
Min Temperature 32 °F 35 °F 10 °F (1926)
Degree Days  
Heating Degree Days 28 25  
Month to date heating degree days 133 166  
Since 1 July heating degree days 941 999  
Cooling Degree Days 0 0  
Month to date cooling degree days 0 0  
Year to date cooling degree days 1271 1105  
Moisture  
Dew Point 26 °F    
Average Humidity 65    
Maximum Humidity 89    
Minimum Humidity 40    
Precipitation  
Precipitation 0.14 in 0.14 in 1.98 in (1908)
Month to date precipitation 0.88 0.98  
Year to date precipitation 42.35 46.92  
Snow  
Snow T in 0.10 in 2.00 in (1886)
Month to date snowfall T 0.6  
Since 1 July snowfall T 0.9  
Snow Depth 0.00 in    
Sea Level Pressure  
Sea Level Pressure 30.29 in    
Wind  
Wind Speed 6 mph (NNW)    
Max Wind Speed 13 mph    
Max Gust Speed 22 mph    
Visibility 9 miles    
Events Rain    
T = Trace of Precipitation, MM = Missing Value Source: NWS Daily Summary

Daily Weather History Graph

Daily Weather History Graph

Search for Another Location

Airport or City:

Trip Planner

Search our weather history database for the weather conditions in past years. The results will help you decide how hot, cold, wet, or windy it might be!

Date:

Astronomy

Dec. 07, 2013 Rise Set
Actual Time 7:06 AM EST 4:28 PM EST
Civil Twilight 6:35 AM EST 4:58 PM EST
Nautical Twilight 6:01 AM EST 5:33 PM EST
Astronomical Twilight 5:28 AM EST 6:06 PM EST
Moon 10:48 AM EST (12/7) 10:08 PM EST (12/7)
Length of Visible Light 10h 22m
Length of Day
9h 21m
Waxing Crescent, 29% of the Moon is Illuminated
Dec 7
Waxing Crescent
Dec 9
First Quarter
Dec 17
Full
Dec 25
Last Quarter
Jan 1
New

Hourly Weather History & Observations

Time (EST) Temp. Windchill Dew Point Humidity Pressure Visibility Wind Dir Wind Speed Gust Speed Precip Events Conditions
12:51 AM 36.0 °F 29.6 °F 32.0 °F 86% 30.10 in 8.0 mi ENE 8.1 mph - 0.13 in Rain Light Rain
1:17 AM 37.0 °F 31.6 °F 32.0 °F 82% 30.12 in 10.0 mi Variable 6.9 mph - 0.01 in   Overcast
1:51 AM 36.0 °F 31.1 °F 33.1 °F 89% 30.11 in 10.0 mi Variable 5.8 mph - 0.01 in   Overcast
2:36 AM 36.0 °F 28.5 °F 32.0 °F 86% 30.19 in 4.0 mi North 10.4 mph - N/A   Overcast
2:51 AM 36.0 °F 33.3 °F 32.0 °F 86% 30.19 in 3.0 mi Variable 3.5 mph - 0.01 in   Overcast
3:14 AM 36.0 °F 31.1 °F 32.0 °F 86% 30.19 in 4.0 mi NNE 5.8 mph - 0.00 in   Overcast
3:30 AM 36.0 °F 29.0 °F 33.1 °F 89% 30.19 in 6.0 mi NNE 9.2 mph - 0.00 in   Overcast
3:51 AM 36.0 °F - 32.0 °F 86% 30.17 in 10.0 mi North - - 0.00 in   Overcast
4:05 AM 36.0 °F 33.3 °F 32.0 °F 86% 30.19 in 10.0 mi Variable 3.5 mph - N/A   Overcast
4:51 AM 36.0 °F - 32.0 °F 86% 30.19 in 10.0 mi Calm Calm - N/A   Overcast
5:24 AM 36.0 °F - 32.0 °F 86% 30.22 in 10.0 mi Calm Calm - N/A   Overcast
5:51 AM 36.0 °F 31.1 °F 30.9 °F 82% 30.21 in 10.0 mi Variable 5.8 mph - N/A   Overcast
6:51 AM 37.0 °F 34.5 °F 30.9 °F 79% 30.24 in 10.0 mi Variable 3.5 mph - N/A   Overcast
7:34 AM 37.0 °F 33.3 °F 30.0 °F 76% 30.27 in 10.0 mi Variable 4.6 mph - N/A   Mostly Cloudy
7:51 AM 37.0 °F 34.5 °F 30.0 °F 76% 30.26 in 10.0 mi Variable 3.5 mph - N/A   Scattered Clouds
8:51 AM 37.0 °F - 28.9 °F 73% 30.29 in 10.0 mi North - - N/A   Clear
9:51 AM 37.9 °F 32.7 °F 27.0 °F 65% 30.31 in 10.0 mi Variable 6.9 mph - N/A   Clear
10:51 AM 39.9 °F 35.8 °F 27.0 °F 60% 30.31 in 10.0 mi Variable 5.8 mph - N/A   Mostly Cloudy
11:15 AM 39.9 °F 35.1 °F 26.1 °F 58% 30.33 in 10.0 mi Variable 6.9 mph - N/A   Scattered Clouds
11:51 AM 39.0 °F 34.8 °F 26.1 °F 60% 30.31 in 10.0 mi Variable 5.8 mph - N/A   Scattered Clouds
12:08 PM 39.9 °F - 26.1 °F 58% 30.33 in 10.0 mi North - - N/A   Mostly Cloudy
12:24 PM 39.9 °F 36.7 °F 25.0 °F 55% 30.33 in 10.0 mi Variable 4.6 mph - N/A   Mostly Cloudy
12:51 PM 41.0 °F 36.4 °F 25.0 °F 53% 30.31 in 10.0 mi Variable 6.9 mph - N/A   Mostly Cloudy
1:51 PM 39.9 °F 35.1 °F 23.0 °F 51% 30.31 in 10.0 mi Variable 6.9 mph 19.6 mph N/A   Partly Cloudy
2:51 PM 39.9 °F 34.5 °F 19.9 °F 45% 30.32 in 10.0 mi WNW 8.1 mph - N/A   Clear
3:51 PM 39.0 °F 34.0 °F 17.1 °F 41% 30.34 in 10.0 mi Variable 6.9 mph - N/A   Clear
4:51 PM 37.9 °F 33.5 °F 18.0 °F 45% 30.37 in 10.0 mi Variable 5.8 mph - N/A   Clear
5:51 PM 37.9 °F 32.1 °F 18.0 °F 45% 30.40 in 10.0 mi NW 8.1 mph - N/A   Clear
6:51 PM 37.0 °F 31.6 °F 16.0 °F 42% 30.42 in 10.0 mi NW 6.9 mph - N/A   Clear
7:51 PM 36.0 °F 29.0 °F 15.1 °F 43% 30.45 in 10.0 mi WNW 9.2 mph - N/A   Clear
8:51 PM 35.1 °F 28.6 °F 15.1 °F 44% 30.48 in 10.0 mi WNW 8.1 mph - N/A   Clear
9:51 PM 34.0 °F 29.8 °F 15.1 °F 46% 30.49 in 10.0 mi Variable 4.6 mph - N/A   Clear
10:51 PM 33.1 °F 26.9 °F 14.0 °F 46% 30.51 in 10.0 mi Variable 6.9 mph - N/A   Clear
11:51 PM 32.0 °F 26.4 °F 14.0 °F 48% 30.51 in 10.0 mi NW 5.8 mph - N/A   Clear